sat.trackr.live / text

‹ back to catalog

STARLINK-36215

NORAD 67100 · 2025-298AB

PAYLOAD ACTIVE UNKNOWN

§ Identity

Operator
Country
US
Launch date
2025-12-14
Launch site
AFWTR
Launch vehicle
Mass (kg)
RCS (m²)

Purposes: comms

External: N2YO · Heavens-Above · Gunter

§ Orbital elements

Epoch: 2026-05-25T02:31:11.040096Z

Period
96.11 min
Inclination
70.0011°
Eccentricity
0.0003546
Mean motion
14.98345955 rev/d
Perigee alt
569.5 km
Apogee alt
574.5 km
Semi-major
6,950.1 km
B*
3.0822e-4
RAAN
181.7784°
Arg perigee
266.6411°
Mean anomaly
93.4343°
Rev number
2,466

§ Raw data

STARLINK-362151 67100U 25298AB  26145.10498889  .00003588  00000+0  30822-3 0  99962 67100  70.0011 181.7784 0003546 266.6411  93.4343 14.98345955 24662

JSON: /api/v1/satellites/67100 · /tle

For live sub-satellite position, see the globe view (requires WebGL).

§ Visibility from observer

Set your observer location to see the next 7 days of passes ≥ 10°. The values pass through the URL so the page stays shareable.

No JS? Fill the form by hand. The geolocation button needs JavaScript.